Weather History for Granite Falls, MN

Change the Weather History Date:

Monday, November 14, 2011

  Actual Average (KMVE) Record (KMVE)
Temperature  
Mean Temperature 40 °F -  
Max Temperature 52 °F 39 °F 70 °F (1990)
Min Temperature 29 °F 23 °F -4 °F (1959)
Degree Days  
Heating Degree Days 24    
Moisture  
Dew Point 23 °F    
Average Humidity 53    
Maximum Humidity 70    
Minimum Humidity 27    
Precipitation  
Precipitation 0.00 in - - ()
Sea Level Pressure  
Sea Level Pressure 29.49 in    
Wind  
Wind Speed 12 mph (SW)    
Max Wind Speed 26 mph    
Max Gust Speed 33 mph    
Visibility 9 miles    
Events      
Averages and records for this station are not official NWS values.
T = Trace of Precipitation, MM = Missing Value Source: NWS Daily Summary

Daily Weather History Graph

Daily Weather History Graph

Search for Another Location

Airport:

Trip Planner

Search our weather history database for the weather conditions in past years. The results will help you decide how hot, cold, wet, or windy it might be!

Date:

Astronomy

Nov. 14, 2011 Rise Set
Actual Time 7:17 AM CST 4:55 PM CST
Civil Twilight 6:46 AM CST 5:26 PM CST
Nautical Twilight 6:10 AM CST 6:02 PM CST
Astronomical Twilight 5:36 AM CST 6:36 PM CST
Moon 8:00 PM CST (11/14) 10:40 AM CST (11/14)
Length of Visible Light 10h 40m
Length of Day
9h 37m
Waning Gibbous, 86% of the Moon is Illuminated
Nov 14
Waning Gibbous
Nov 18
Last Quarter
Nov 25
New
Dec 2
First Quarter
Dec 10
Full

Hourly Weather History & Observations

Time (CST) Temp. Windchill Dew Point Humidity Pressure Visibility Wind Dir Wind Speed Gust Speed Precip Events Conditions
12:13 AM 36.7 °F 28.0 °F 23.9 °F 60% 29.45 in 7.0 mi South 13.8 mph - N/A   Mostly Cloudy
12:32 AM 36.0 °F 28.5 °F 23.7 °F 61% 29.45 in 10.0 mi South 10.4 mph - N/A   Scattered Clouds
12:53 AM 34.3 °F 27.7 °F 22.8 °F 63% 29.44 in 10.0 mi South 8.1 mph - N/A   Clear
1:13 AM 32.0 °F 24.2 °F 22.1 °F 67% 29.43 in 7.0 mi South 9.2 mph - N/A   Clear
1:32 AM 31.6 °F 23.1 °F 21.9 °F 67% 29.42 in 10.0 mi South 10.4 mph - N/A   Clear
1:53 AM 32.9 °F 24.1 °F 22.6 °F 66% 29.42 in 10.0 mi South 11.5 mph - N/A   Clear
2:12 AM 32.4 °F 23.5 °F 22.6 °F 67% 29.42 in 10.0 mi South 11.5 mph - N/A   Clear
2:33 AM 33.1 °F 25.5 °F 22.6 °F 66% 29.42 in 7.0 mi South 9.2 mph - N/A   Clear
2:52 AM 32.4 °F 24.6 °F 22.3 °F 66% 29.42 in 10.0 mi SSW 9.2 mph - N/A   Clear
3:33 AM 33.4 °F 26.6 °F 21.7 °F 62% 29.42 in 10.0 mi SW 8.1 mph - N/A   Clear
3:53 AM 34.0 °F 27.2 °F 21.9 °F 61% 29.42 in 10.0 mi SW 8.1 mph - N/A   Clear
4:13 AM 32.9 °F 25.3 °F 21.7 °F 64% 29.42 in 7.0 mi SW 9.2 mph - N/A   Clear
4:32 AM 32.2 °F 25.0 °F 21.4 °F 64% 29.43 in 10.0 mi WSW 8.1 mph - N/A   Clear
4:53 AM 32.2 °F 23.8 °F 21.6 °F 65% 29.43 in 7.0 mi SW 10.4 mph - N/A   Clear
5:13 AM 32.2 °F 25.0 °F 21.6 °F 65% 29.42 in 7.0 mi WSW 8.1 mph - N/A   Clear
5:32 AM 32.0 °F 26.4 °F 21.2 °F 64% 29.42 in 10.0 mi SW 5.8 mph - N/A   Clear
5:53 AM 32.4 °F 26.0 °F 21.2 °F 63% 29.42 in 10.0 mi SSW 6.9 mph - N/A   Clear
6:13 AM 29.1 °F 23.0 °F 20.3 °F 70% 29.43 in 10.0 mi WSW 5.8 mph - N/A   Clear
6:33 AM 30.6 °F 25.8 °F 20.5 °F 66% 29.43 in 7.0 mi SSW 4.6 mph - N/A   Clear
6:52 AM 29.8 °F 21.5 °F 20.7 °F 69% 29.44 in 10.0 mi SSW 9.2 mph - N/A   Clear
7:13 AM 31.8 °F 23.3 °F 21.0 °F 64% 29.45 in 7.0 mi SSW 10.4 mph - N/A   Clear
7:52 AM 31.5 °F 22.9 °F 21.2 °F 66% 29.46 in 10.0 mi SW 10.4 mph - N/A   Clear
8:13 AM 34.9 °F 26.2 °F 23.4 °F 63% 29.47 in 10.0 mi SW 12.7 mph - N/A   Mostly Cloudy
8:33 AM 37.2 °F 30.6 °F 25.0 °F 61% 29.47 in 10.0 mi WSW 9.2 mph - N/A   Mostly Cloudy
8:53 AM 37.2 °F 29.1 °F 25.5 °F 63% 29.48 in 7.0 mi WSW 12.7 mph - N/A   Scattered Clouds
9:12 AM 39.6 °F 31.7 °F 27.7 °F 62% 29.48 in 7.0 mi SW 13.8 mph - N/A   Clear
9:32 AM 41.7 °F 34.1 °F 28.9 °F 61% 29.48 in 10.0 mi WSW 15.0 mph - N/A   Clear
9:53 AM 41.4 °F 33.0 °F 29.1 °F 62% 29.49 in 10.0 mi West 17.3 mph 24.2 mph N/A   Clear
10:13 AM 43.0 °F 35.4 °F 29.8 °F 60% 29.49 in 7.0 mi West 16.1 mph - N/A   Clear
10:33 AM 43.7 °F 36.0 °F 29.8 °F 58% 29.49 in 10.0 mi West 17.3 mph - N/A   Clear
10:53 AM 43.0 °F 34.8 °F 29.3 °F 59% 29.50 in 7.0 mi West 18.4 mph - N/A   Clear
11:12 AM 45.1 °F 37.9 °F 29.7 °F 55% 29.50 in 5.0 mi West 17.3 mph 24.2 mph N/A   Haze
11:32 AM 46.9 °F - 29.8 °F 51% 29.49 in 7.0 mi WSW 17.3 mph - N/A   Clear
11:53 AM 48.4 °F - 29.5 °F 48% 29.49 in 10.0 mi WSW 19.6 mph 24.2 mph N/A   Clear
12:12 PM 50.2 °F - 27.0 °F 41% 29.49 in 7.0 mi West 21.9 mph 28.8 mph N/A   Clear
12:32 PM 50.5 °F - 24.8 °F 37% 29.49 in 7.0 mi West 24.2 mph 29.9 mph N/A   Clear
12:53 PM 51.4 °F - 24.3 °F 35% 29.49 in 10.0 mi West 19.6 mph 26.5 mph N/A   Clear
1:13 PM 52.2 °F - 22.8 °F 32% 29.49 in 7.0 mi West 25.3 mph 31.1 mph N/A   Clear
1:32 PM 52.2 °F - 21.7 °F 30% 29.49 in 10.0 mi West 25.3 mph 31.1 mph N/A   Clear
1:53 PM 52.3 °F - 20.7 °F 29% 29.50 in 10.0 mi West 21.9 mph 26.5 mph N/A   Clear
2:13 PM 52.3 °F - 19.2 °F 27% 29.51 in 10.0 mi West 25.3 mph 32.2 mph N/A   Clear
2:33 PM 52.3 °F - 19.2 °F 27% 29.51 in 10.0 mi WSW 23.0 mph 28.8 mph N/A   Clear
2:52 PM 52.0 °F - 20.3 °F 29% 29.51 in 10.0 mi West 24.2 mph 33.4 mph N/A   Scattered Clouds
3:13 PM 52.0 °F - 21.4 °F 30% 29.51 in 10.0 mi WSW 26.5 mph 33.4 mph N/A   Scattered Clouds
3:33 PM 50.7 °F - 21.2 °F 31% 29.52 in 10.0 mi WSW 23.0 mph 33.4 mph N/A   Scattered Clouds
3:52 PM 50.5 °F - 21.7 °F 32% 29.52 in 10.0 mi West 18.4 mph 23.0 mph N/A   Clear
4:12 PM 49.5 °F - 21.2 °F 33% 29.52 in 10.0 mi WSW 16.1 mph 23.0 mph N/A   Clear
4:33 PM 48.6 °F - 21.9 °F 35% 29.52 in 7.0 mi West 11.5 mph - N/A   Clear
4:53 PM 46.2 °F 41.7 °F 21.6 °F 38% 29.53 in 10.0 mi West 9.2 mph - N/A   Clear
5:12 PM 42.6 °F 38.4 °F 20.8 °F 42% 29.54 in 7.0 mi West 6.9 mph - N/A   Clear
5:33 PM 40.3 °F 34.9 °F 20.3 °F 45% 29.55 in 10.0 mi West 8.1 mph - N/A   Clear
5:52 PM 37.8 °F 32.5 °F 19.8 °F 48% 29.56 in 10.0 mi WSW 6.9 mph - N/A   Clear
6:13 PM 34.3 °F 28.4 °F 18.0 °F 51% 29.57 in 7.0 mi West 6.9 mph - N/A   Clear
6:33 PM 34.7 °F 29.6 °F 18.5 °F 52% 29.57 in 10.0 mi West 5.8 mph - N/A   Clear
6:52 PM 32.2 °F 26.7 °F 17.8 °F 55% 29.58 in 7.0 mi SW 5.8 mph - N/A   Clear
7:12 PM 33.8 °F 28.6 °F 19.2 °F 55% 29.58 in 10.0 mi SW 5.8 mph - N/A   Clear
7:32 PM 34.5 °F 31.6 °F 19.8 °F 55% 29.58 in 7.0 mi WSW 3.5 mph - N/A   Clear
7:53 PM 32.9 °F - 19.0 °F 57% 29.57 in 10.0 mi Calm Calm - N/A   Clear
8:12 PM 32.9 °F - 19.9 °F 59% 29.58 in 10.0 mi Calm Calm - N/A   Clear
8:32 PM 30.4 °F 23.6 °F 17.8 °F 60% 29.58 in 7.0 mi South 6.9 mph - N/A   Scattered Clouds
8:53 PM 31.8 °F 24.6 °F 18.7 °F 58% 29.57 in 7.0 mi SSE 8.1 mph - N/A   Scattered Clouds
9:12 PM 30.7 °F 22.6 °F 18.5 °F 60% 29.58 in 10.0 mi South 9.2 mph - N/A   Mostly Cloudy
9:32 PM 32.9 °F 25.9 °F 18.9 °F 56% 29.57 in 10.0 mi SSE 8.1 mph - N/A   Overcast
9:53 PM 32.0 °F 25.6 °F 18.1 °F 57% 29.58 in 7.0 mi South 6.9 mph - N/A   Mostly Cloudy
10:13 PM 31.5 °F 24.2 °F 18.5 °F 59% 29.58 in 7.0 mi South 8.1 mph - N/A   Mostly Cloudy
10:32 PM 31.8 °F 23.9 °F 18.9 °F 59% 29.58 in 10.0 mi South 9.2 mph - N/A   Scattered Clouds
10:52 PM 30.6 °F 22.4 °F 18.9 °F 62% 29.57 in 10.0 mi SSE 9.2 mph - N/A   Clear
11:12 PM 30.0 °F 21.7 °F 18.5 °F 62% 29.57 in 10.0 mi South 9.2 mph - N/A   Clear
11:32 PM 31.5 °F 22.9 °F 19.8 °F 62% 29.57 in 10.0 mi SSE 10.4 mph - N/A   Scattered Clouds
11:53 PM 32.4 °F 26.0 °F 19.8 °F 60% 29.57 in 10.0 mi SSE 6.9 mph - N/A   Scattered Clouds